Погода в Майском

Россия / Хабаровский край     48°59′59″N   140°14′34″E
темп.,
°C
ветер,
м/с
пор.,
м/с
влажн.,
%
обл.,
%
осадки,
мм/ч
давл.,
гПа
погр.,
м
11 апреля, вс
вс1101:00+2зюз32685 0.0 102326
04:00+1зюз32635 0.0 102329
07:00+2зюз345926 0.0 102261
10:00+11ююз463799 0.0 1021525
13:00+15ююз583175 0.0 10181509
16:00+13юз51138100 0.0 10171751
19:00+10зюз3754100 0.0 1018201
22:00+6з1171100 0.0 102015
12 апреля, пн
пн1201:00+6зюз2274100 0.0 101933
04:00+6зюз2277100 0.0 101726
07:00+4ссв2389100 0.3 1016109
10:00+6ссв348198 0.3 1016442
13:00+4всв2292100 0.1 1016200
16:00+3в2392100 0.1 1015338
19:00+1св3395100 0.0 1014243
22:00−1св4694100 0.0 1014315
13 апреля, вт
вт1301:00−1св4693100 0.1 1013405
04:00−2ссв3592100 0.1 1010358
07:00−2св4690100 0.1 1008445
10:00−2св4588100 0.1 1007489
13:00−2св4587100 0.1 1006524
16:00−3св5792100 0.5 1003522
19:00−3ссв2796100 3.1 1002408
22:00−2с1397100 6.6 1000172
14 апреля, ср
ср1401:00−2сз129692 1.1 99898
04:00−2зюз1296100 1.5 997121
07:00−2зсз4886100 1.1 999761
10:000зсз6754100 1.2 10011492
13:00+1зсз6845100 0.0 10022001
16:00+1зсз6945100 0.0 10032178
19:00−1сз5105482 0.0 1007508
22:00−4зсз3768100 0.0 1009260
15 апреля, чт
чт1501:00−6з2283100 0.0 101037
04:00−5з118196 0.0 101223
07:00−4з127416 0.0 101363
10:00+2з145078 0.0 10141329
13:00+3юв345499 0.1 10151255
16:00+2юв455918 0.2 1016688
19:00−1юв227984 0.0 101726
22:00−4юз119520 0.0 101930